Overview Statistics Trail Chart Weather Telemetry Raw packets
 

This is the latest recevied weather packets stored in our database for station/object KE6YLF. If no packets are shown the sender has not sent any weather packets the latest 10 day(s).

<< 97 98 99 100 101 102 103 >>
Time Temp. Humidity Pressure Rain* Wind** Luminosity Snow
1787962723 42.22° C 26% 1073.7 hPa 0 mm - - -
1787962422 41.67° C 26% 1073.6 hPa 0 mm - - -
1787962121 41.11° C 27% 1073.7 hPa 0 mm - - -
1787961821 41.67° C 27% 1073.6 hPa 0 mm - - -
1787961519 41.11° C 27% 1073.6 hPa 0 mm - - -
1787961214 41.11° C 28% 1073.5 hPa 0 mm - - -
1787960913 41.67° C 27% 1073.6 hPa 0 mm - - -
1787960609 41.67° C 27% 1073.6 hPa 0 mm - - -
1787960308 41.67° C 27% 1073.4 hPa 0 mm - - -
1787960002 41.67° C 27% 1073.6 hPa 0 mm - - -
1787959697 41.67° C 27% 1073.6 hPa 0 mm - - -
1787959392 41.67° C 27% 1073.9 hPa 0 mm - - -
1787959081 42.22° C 27% 1073.8 hPa 0 mm - - -
1787958776 42.22° C 27% 1073.8 hPa 0 mm - - -
1787958471 42.22° C 27% 1073.9 hPa 0 mm - - -
1787958167 42.22° C 26% 1073.7 hPa 0 mm - - -
1787957861 41.67° C 26% 1073.8 hPa 0 mm - - -
1787957560 41.67° C 27% 1074.1 hPa 0 mm - - -
1787957256 42.78° C 26% 1074 hPa 0 mm - - -
1787956950 42.22° C 27% 1074.2 hPa 0 mm - - -
1787956650 41.67° C 27% 1074.1 hPa 0 mm - - -
1787956345 41.11° C 27% 1074.2 hPa 0 mm - - -
1787956040 41.11° C 28% 1074.3 hPa 0 mm - - -
1787955736 41.67° C 27% 1074.5 hPa 0 mm - - -
1787955432 41.11° C 28% 1074.4 hPa 0 mm - - -

* Rain latest hour (hover to see other rain measurements)
** Current wind speed in m/s (hover to see current wind gust speed)